FENGYUN 1C DEB, 30382

Orbit data source: Space-Track

FENGYUN 1C DEB, 30382 is space debris in SSO originally from a launch on Mon, 10 May 1999 UTC launched from the Taiyaun Space Center, China (TSC). Fengyun 1C debris stems from the Chinese weather satellite Fengyun-1C, which was intentionally destroyed by a Chinese anti-satellite missile in 2007. This event dramatically increased the amount of space debris, with thousands of trackable fragments posing hazards to satellites and human spaceflight. The Fengyun 1C debris cloud has become a focal point in discussions about space sustainability and the need for international regulations to prevent the creation of new debris.

Loading next visibility...
Identifier
30382, 1999-025ACV
Orbit
SSO
Country
Flag of CNCN / PRC
Related business
Manufacturer
Unknown
Mission
Spacecraft
Bus & Motor
Unknown
Mass
Unknown
Launch date (UTC)
1999-05-10 (27 years ago)
Launch vehicle
Unknown
Launch site
Taiyaun Space Center, China (TSC)
Object type
Payload
Rocket body
Debris
Shape & HBR
Unknown shape, 0.1 m
Radar Cross Section
Small (<0.1 m²)

Expand to show TLE details & history
Last TLE update: 19 hours ago

TLE from 19 hours ago
0 FENGYUN 1C DEB
1 30382U 99025ACV 26106.09900190  .00000971  00000-0  37689-3 0  9997
2 30382  98.4822 145.6371 0153022 353.3340  24.5573 14.25916834993079
Epoch: 2026-04-16T02:22Z
TLE epoch observation values (Epoch: 2026-04-16T02:22:33.764Z)
Latitude
18.4171°
Longitude
-97.0861°
Altitude
708.105 km
Speed
7.555 km/s
True Right ascension
09h 31m 13s
True Declination
18° 18' 49"
Sunlit
Object was in daylight at epoch
Visualization orbit readout
Latitude
Unknown
Longitude
Unknown
Altitude
Unknown
Speed
Unknown
Apparent Right ascension
Unknown
Apparent Declination
Unknown
Sunlit
N/A
Visualization observer readout
Local Sidereal Time
03:40:44
Azimuth
Unknown
Elevation
Unknown
Doppler factor
Unknown
Orbital elements
Apogee altitude
912.431 km
Perigee altitude
692.67 km
Semi-major axis
7,180.688 km
Eccentricity
0.0153
Inclination
98.4822°
RAAN
145.6371°
Arg. of periapsis
353.334°
True anomaly
25.29893°
Mean anomaly
24.5573°
Eccentric anomaly
24.92682°
Mean motion
3.56693 °/min
Orbital period
100.93 mins
BSTAR
0.00037689
Loading maneuver chart data...
Computing Atmospheric mass density...
Loading historical data...
Loading historical data...
Loading historical data...
Loading historical data...
Loading historical data...
Loading historical data...
Loading historical data...

Documentation

Showing up to 5 results
|